KF4ERV-4 Weather Reports


time (UTC)temp
F
wind
direction
speed
knots
gust
knots
rain 1hr
in
rain 24hr
in
rain mn
in
humidity
%
barometer
mb
20260906112329 74 357 0.0 0.0 0.00 0.00 0.00 41 1014.0
20260906112008 74 357 0.0 0.0 0.00 0.00 0.00 41 1014.0
20260906110903 74 354 0.0 0.0 0.00 0.00 0.00 41 1013.9
20260906110507 74 354 0.0 0.0 0.00 0.00 0.00 41 1013.9
20260906110410 74 350 0.0 0.0 0.00 0.00 0.00 41 1013.9
20260906110008 74 350 0.0 0.0 0.00 0.00 0.00 41 1013.9
20260906105922 74 356 0.0 0.9 0.00 0.00 0.00 41 1013.9
20260906105512 74 356 0.0 0.9 0.00 0.00 0.00 41 1013.9
20260906105004 74 328 0.0 0.9 0.00 0.00 0.00 41 1014.0
20260906103004 74 359 0.0 0.0 0.00 0.00 0.00 41 1013.9
20260906102514 74 347 0.0 0.0 0.00 0.00 0.00 41 1013.9
20260906101959 74 349 0.0 0.0 0.00 0.00 0.00 41 1013.9
20260906101504 74 324 0.0 0.0 0.00 0.00 0.00 41 1013.9
20260906101007 74 343 0.0 0.0 0.00 0.00 0.00 41 1013.9
20260906100609 74 354 0.0 0.0 0.00 0.00 0.00 41 1013.9
20260906100508 74 354 0.0 0.0 0.00 0.00 0.00 41 1013.9
20260906100119 74 338 0.0 0.0 0.00 0.00 0.00 41 1013.9
20260906095629 74 328 0.0 0.9 0.00 0.00 0.00 41 1014.0
20260906095515 74 328 0.0 0.9 0.00 0.00 0.00 41 1014.0
20260906095141 74 337 0.0 0.9 0.00 0.00 0.00 41 1013.4
20260906094649 74 312 0.0 0.9 0.00 0.00 0.00 41 1013.6
20260906094159 74 324 0.0 0.0 0.00 0.00 0.00 41 1013.4
20260906093718 74 316 0.0 0.0 0.00 0.00 0.00 41 1013.0
20260906093219 75 335 0.0 0.0 0.00 0.00 0.00 41 1012.9
20260906093009 75 335 0.0 0.0 0.00 0.00 0.00 41 1012.9
20260906092731 75 328 0.0 0.0 0.00 0.00 0.00 41 1012.9
20260906092242 75 315 0.0 0.0 0.00 0.00 0.00 41 1012.9
20260906092002 75 315 0.0 0.0 0.00 0.00 0.00 41 1012.9
20260906091749 75 328 0.0 0.0 0.00 0.00 0.00 41 1012.9
20260906091259 75 357 0.0 0.0 0.00 0.00 0.00 41 1013.0
20260906091013 75 357 0.0 0.0 0.00 0.00 0.00 41 1013.0
20260906090809 75 344 0.0 0.0 0.00 0.00 0.00 41 1012.9
20260906090502 75 344 0.0 0.0 0.00 0.00 0.00 41 1012.9
20260906090005 75 318 0.0 0.0 0.00 0.00 0.00 41 1013.1
20260906085350 75 331 0.0 0.0 0.00 0.00 0.00 41 1013.0
20260906085002 75 331 0.0 0.0 0.00 0.00 0.00 41 1013.0
20260906084503 75 303 0.0 0.0 0.00 0.00 0.00 41 1012.9
20260906084402 76 333 0.0 0.0 0.00 0.00 0.00 41 1012.9
20260906084012 76 333 0.0 0.0 0.00 0.00 0.00 41 1012.9
20260906083911 76 346 0.0 0.0 0.00 0.00 0.00 41 1012.9
20260906083507 76 346 0.0 0.0 0.00 0.00 0.00 41 1012.9
20260906082934 76 321 0.0 0.0 0.00 0.00 0.00 41 1012.9
20260906082510 76 321 0.0 0.0 0.00 0.00 0.00 41 1012.9
20260906082439 76 301 0.0 0.0 0.00 0.00 0.00 41 1012.9
20260906082005 76 301 0.0 0.0 0.00 0.00 0.00 41 1012.9
20260906081459 76 310 0.0 0.0 0.00 0.00 0.00 41 1012.9
20260906081011 76 313 0.0 0.0 0.00 0.00 0.00 41 1012.9
20260906080503 76 315 0.0 0.0 0.00 0.00 0.00 41 1013.0
20260906080006 76 342 0.0 0.0 0.00 0.00 0.00 41 1013.0
20260906075459 77 319 0.0 0.0 0.00 0.00 0.00 41 1013.1
20260906075049 77 326 0.0 0.0 0.00 0.00 0.00 41 1012.9
20260906074504 77 315 0.0 0.0 0.00 0.00 0.00 43 1012.9
20260906073129 77 322 0.0 0.0 0.00 0.00 0.00 56 1012.9
20260906073004 77 322 0.0 0.0 0.00 0.00 0.00 56 1012.9
20260906072639 77 336 0.0 0.0 0.00 0.00 0.00 60 1012.9
20260906072511 77 336 0.0 0.0 0.00 0.00 0.00 60 1012.9
20260906072152 78 326 0.0 0.0 0.00 0.00 0.00 50 1012.9
20260906072008 78 326 0.0 0.0 0.00 0.00 0.00 50 1012.9
20260906071208 78 319 0.0 0.0 0.00 0.00 0.00 1013.1
20260906070719 78 359 0.0 0.0 0.00 0.00 0.00 1012.9
20260906070506 78 359 0.0 0.0 0.00 0.00 0.00 1012.9
20260906070237 78 339 0.0 0.0 0.00 0.00 0.00 5 1013.1
20260906065958 78 339 0.0 0.0 0.00 0.00 0.00 5 1013.1
20260906065741 78 308 0.0 0.0 0.00 0.00 0.00 10 1012.9
20260906065503 78 308 0.0 0.0 0.00 0.00 0.00 10 1012.9
20260906065250 78 292 0.0 0.0 0.00 0.00 0.00 19 1013.0
20260906065009 78 292 0.0 0.0 0.00 0.00 0.00 19 1013.0
20260906064801 79 304 0.0 0.0 0.00 0.00 0.00 23 1012.9
20260906064309 79 309 0.0 0.0 0.00 0.00 0.00 31 1013.0
20260906064001 79 309 0.0 0.0 0.00 0.00 0.00 31 1013.0
20260906063333 79 324 0.0 0.0 0.00 0.00 0.00 37 1013.0
20260906062845 79 319 0.0 0.0 0.00 0.00 0.00 37 1013.1
20260906062352 79 344 0.0 0.0 0.00 0.00 0.00 38 1013.0
20260906062000 79 344 0.0 0.0 0.00 0.00 0.00 38 1013.0
20260906061900 79 325 0.0 0.0 0.00 0.00 0.00 38 1013.1
20260906061008 79 343 0.0 0.0 0.00 0.00 0.00 38 1012.9
20260906060500 79 358 0.0 0.0 0.00 0.00 0.00 38 1013.1
20260906060429 80 350 0.0 0.0 0.00 0.00 0.00 38 1013.0
20260906060001 80 350 0.0 0.0 0.00 0.00 0.00 38 1013.0
20260906054958 80 24 0.0 0.0 0.00 0.00 0.00 41 1012.9
20260906054459 80 9 0.0 0.0 0.00 0.00 0.00 43 1012.9
20260906053503 80 341 0.0 0.0 0.00 0.00 0.00 46 1012.9
20260906053008 80 334 0.0 0.0 0.00 0.00 0.00 48 1013.0
20260906052547 80 319 0.0 0.0 0.00 0.00 0.00 51 1012.9
20260906052003 80 355 0.0 0.0 0.00 0.00 0.00 54 1013.0
20260906051609 80 318 0.0 0.0 0.00 0.00 0.00 56 1012.9
20260906051505 80 318 0.0 0.0 0.00 0.00 0.00 56 1012.9
20260906050958 81 315 0.0 0.0 0.00 0.00 0.00 58 1012.9
20260906050005 81 289 0.0 0.0 0.00 0.00 0.00 60 1012.9
20260906045507 81 292 0.0 0.0 0.00 0.00 0.00 60 1013.0
20260906045209 81 321 0.0 0.0 0.00 0.00 0.00 61 1012.9
20260906045015 81 321 0.0 0.0 0.00 0.00 0.00 61 1012.9
20260906044710 81 306 0.0 0.0 0.00 0.00 0.00 62 1012.9
20260906044220 81 313 0.0 0.0 0.00 0.00 0.00 62 1012.9
20260906043730 82 313 0.0 0.0 0.00 0.00 0.00 63 1012.9
20260906043507 82 313 0.0 0.0 0.00 0.00 0.00 63 1012.9
20260906042006 82 20 0.0 0.0 0.00 0.00 0.00 64 1012.9
20260906041811 82 288 0.0 0.0 0.00 0.00 0.00 65 1013.0
20260906041504 82 288 0.0 0.0 0.00 0.00 0.00 65 1013.0
20260906041008 82 6 0.0 0.0 0.00 0.00 0.00 66 1012.9
20260906040504 82 26 0.0 0.0 0.00 0.00 0.00 67 1012.9
20260906040009 82 314 0.0 0.0 0.00 0.00 0.00 69 1012.9
20260906035459 82 332 0.0 0.0 0.00 0.00 0.00 70 1013.0
20260906035402 82 298 0.0 0.0 0.00 0.00 0.00 71 1012.8
20260906035003 82 298 0.0 0.0 0.00 0.00 0.00 71 1012.8
20260906034913 83 296 0.0 0.0 0.00 0.00 0.00 72 1012.7
20260906034504 83 296 0.0 0.0 0.00 0.00 0.00 72 1012.7
20260906034422 83 279 0.0 0.0 0.00 0.00 0.00 73 1012.5
20260906034008 83 279 0.0 0.0 0.00 0.00 0.00 73 1012.5
20260906033504 83 281 0.0 0.0 0.00 0.00 0.00 74 1012.8
20260906033004 83 273 0.0 0.0 0.00 0.00 0.00 75 1012.6
20260906032510 83 292 0.0 0.0 0.00 0.00 0.00 75 1012.0
20260906031957 83 291 0.0 0.0 0.00 0.00 0.00 76 1012.1
20260906031501 83 286 0.0 0.0 0.00 0.00 0.00 77 1012.4
20260906031029 83 302 0.0 0.0 0.00 0.00 0.00 77 1012.7
20260906030507 83 315 0.0 0.0 0.00 0.00 0.00 78 1012.9
20260906025959 83 302 0.0 0.0 0.00 0.00 0.00 79 1012.9
20260906025558 83 292 0.0 0.0 0.00 0.00 0.00 79 1012.9
20260906025108 83 292 0.0 0.0 0.00 0.00 0.00 79 1013.0
20260906025004 83 292 0.0 0.0 0.00 0.00 0.00 79 1013.0
20260906024618 83 301 0.0 0.0 0.00 0.00 0.00 80 1012.9
20260906024507 83 301 0.0 0.0 0.00 0.00 0.00 80 1012.9
20260906024129 83 301 0.0 0.0 0.00 0.00 0.00 80 1012.9
20260906023638 83 292 0.0 0.0 0.00 0.00 0.00 81 1013.0
20260906023503 83 292 0.0 0.0 0.00 0.00 0.00 81 1013.0
20260906023149 83 292 0.0 0.0 0.00 0.00 0.00 81 1013.0
20260906023006 83 292 0.0 0.0 0.00 0.00 0.00 81 1013.0
20260906022700 83 309 0.0 0.0 0.00 0.00 0.00 81 1013.0
20260906022458 83 309 0.0 0.0 0.00 0.00 0.00 81 1013.0
20260906022000 83 315 0.0 0.0 0.00 0.00 0.00 81 1012.6
20260906021718 83 315 0.0 0.0 0.00 0.00 0.00 81 1012.0
20260906021504 83 315 0.0 0.0 0.00 0.00 0.00 81 1012.0
20260906021230 83 315 0.0 0.0 0.00 0.00 0.00 81 1011.9
20260906021006 83 315 0.0 0.0 0.00 0.00 0.00 81 1011.9
20260906020249 84 309 0.0 0.0 0.00 0.00 0.00 80 1011.9
20260906020002 84 309 0.0 0.0 0.00 0.00 0.00 80 1011.9
20260906015802 84 315 0.0 0.0 0.00 0.00 0.00 80 1011.9
20260906015309 84 295 0.0 0.0 0.00 0.00 0.00 80 1011.9
20260906015007 84 295 0.0 0.0 0.00 0.00 0.00 80 1011.9
20260906014818 84 292 0.0 0.0 0.00 0.00 0.00 80 1011.9
20260906014459 84 292 0.0 0.0 0.00 0.00 0.00 80 1011.9
20260906014329 85 311 0.0 0.0 0.00 0.00 0.00 80 1012.0
20260906014003 85 311 0.0 0.0 0.00 0.00 0.00 80 1012.0
20260906013505 85 300 0.0 0.0 0.00 0.00 0.00 79 1011.9
20260906013348 85 265 0.0 0.0 0.00 0.00 0.00 79 1012.1
20260906012957 85 265 0.0 0.0 0.00 0.00 0.00 79 1012.1
20260906012500 85 290 0.0 0.0 0.00 0.00 0.00 78 1011.9
20260906012004 86 291 0.0 0.0 0.00 0.00 0.00 77 1011.9
20260906011918 86 289 0.0 0.0 0.00 0.00 0.00 77 1011.9
20260906011506 86 289 0.0 0.0 0.00 0.00 0.00 77 1011.9
20260906011429 86 307 0.0 0.0 0.00 0.00 0.00 77 1011.9
20260906010943 86 349 0.0 0.0 0.00 0.00 0.00 77 1011.9
20260906010501 86 349 0.0 0.0 0.00 0.00 0.00 77 1011.9
20260906005958 86 57 0.0 0.0 0.00 0.00 0.00 77 1011.9
20260906005508 87 350 0.0 0.0 0.00 0.00 0.00 77 1011.9
20260906004959 87 84 0.0 0.0 0.00 0.00 0.00 77 1012.0
20260906004505 87 90 0.0 0.0 0.00 0.00 0.00 77 1012.1
20260906004005 87 98 0.0 0.0 0.00 0.00 0.00 78 1011.9
20260906003457 87 299 0.0 0.0 0.00 0.00 0.00 78 1012.1
20260906003000 88 296 0.0 0.0 0.00 0.00 0.00 78 1011.9
20260906002608 88 10 0.0 0.0 0.00 0.00 0.00 78 1012.0
20260906002503 88 10 0.0 0.0 0.00 0.00 0.00 78 1012.0
20260906002118 88 90 0.0 0.0 0.00 0.00 0.00 78 1011.9
20260906002006 88 90 0.0 0.0 0.00 0.00 0.00 78 1011.9
20260906001628 89 246 0.0 0.9 0.00 0.00 0.00 78 1011.9
20260906001458 89 246 0.0 0.9 0.00 0.00 0.00 78 1011.9
20260906001139 90 197 0.0 0.9 0.00 0.00 0.00 77 1011.9
20260906000648 91 284 0.0 0.0 0.00 0.00 0.00 76 1011.9
20260906000504 91 284 0.0 0.0 0.00 0.00 0.00 76 1011.9
20260906000204 91 323 0.0 0.0 0.00 0.00 0.00 76 1012.0
20260906000010 91 323 0.0 0.0 0.00 0.00 0.00 76 1012.0
20260905235710 91 9 0.0 0.0 0.00 0.00 0.00 75 1011.9
20260905235002 91 4 0.0 0.0 0.00 0.00 0.00 75 1012.1
20260905234505 92 314 0.0 0.0 0.00 0.00 0.00 74 1012.0
20260905234243 92 299 0.0 0.0 0.00 0.00 0.00 74 1012.0
20260905233957 92 299 0.0 0.0 0.00 0.00 0.00 74 1012.0
20260905233748 92 327 0.0 0.0 0.00 0.00 0.00 73 1012.0
20260905233502 92 327 0.0 0.0 0.00 0.00 0.00 73 1012.0
20260905233258 92 329 0.0 0.0 0.00 0.00 0.00 73 1012.0
20260905233003 92 329 0.0 0.0 0.00 0.00 0.00 73 1012.0
20260905232809 92 315 0.0 0.0 0.00 0.00 0.00 72 1012.0
20260905232507 92 315 0.0 0.0 0.00 0.00 0.00 72 1012.0
20260905232318 92 324 0.0 0.0 0.00 0.00 0.00 72 1011.9
20260905231958 92 324 0.0 0.0 0.00 0.00 0.00 72 1011.9
20260905231830 92 320 0.0 0.0 0.00 0.00 0.00 71 1011.9
20260905231501 92 320 0.0 0.0 0.00 0.00 0.00 71 1011.9
20260905231004 92 303 0.0 0.0 0.00 0.00 0.00 71 1012.0
20260905230507 93 311 0.0 0.0 0.00 0.00 0.00 70 1011.9
20260905225959 93 308 0.0 0.0 0.00 0.00 0.00 69 1012.0
20260905225909 93 302 0.0 0.9 0.00 0.00 0.00 69 1012.1
20260905225502 93 302 0.0 0.9 0.00 0.00 0.00 69 1012.1
20260905225428 93 311 0.0 0.9 0.00 0.00 0.00 68 1011.9
20260905225005 93 311 0.0 0.9 0.00 0.00 0.00 68 1011.9
20260905224501 94 309 0.0 0.9 0.00 0.00 0.00 67 1012.0
20260905224000 94 295 0.0 0.9 0.00 0.00 0.00 66 1011.9
20260905223459 94 301 0.0 0.9 0.00 0.00 0.00 66 1012.0
20260905223006 95 314 0.0 0.0 0.00 0.00 0.00 66 1011.3
20260905222501 94 299 0.0 0.0 0.00 0.00 0.00 66 1011.9
20260905222002 94 276 0.0 0.0 0.00 0.00 0.00 67 1011.9
20260905221504 95 306 0.0 0.0 0.00 0.00 0.00 67 1011.9
20260905221007 95 317 0.0 0.0 0.00 0.00 0.00 67 1011.5
20260905220459 95 308 0.0 0.0 0.00 0.00 0.00 67 1011.9
20260905220108 95 323 0.0 0.9 0.00 0.00 0.00 67 1012.1
20260905220003 95 323 0.0 0.9 0.00 0.00 0.00 67 1012.1
20260905215618 96 332 0.0 0.9 0.00 0.00 0.00 66 1012.0
20260905215505 96 332 0.0 0.9 0.00 0.00 0.00 66 1012.0
20260905215128 96 311 0.0 0.0 0.00 0.00 0.00 67 1012.0
20260905214957 96 311 0.0 0.0 0.00 0.00 0.00 67 1012.0
20260905214640 96 295 0.0 0.9 0.00 0.00 0.00 66 1011.9
20260905214148 96 276 0.0 0.9 0.00 0.00 0.00 67 1011.9
20260905213658 96 312 0.0 0.0 0.00 0.00 0.00 66 1011.9
20260905213506 96 312 0.0 0.0 0.00 0.00 0.00 66 1011.9
20260905213210 96 288 0.0 0.9 0.00 0.00 0.00 67 1011.9
20260905212958 96 288 0.0 0.9 0.00 0.00 0.00 67 1011.9
20260905212718 96 267 0.0 0.9 0.00 0.00 0.00 68 1012.0
20260905212501 96 267 0.0 0.9 0.00 0.00 0.00 68 1012.0
20260905212004 95 295 0.0 0.0 0.00 0.00 0.00 69 1012.0
20260905210959 95 220 0.0 0.0 0.00 0.00 0.00 69 1012.0
20260905210759 95 316 0.0 0.0 0.00 0.00 0.00 68 1012.1
20260905210503 95 316 0.0 0.0 0.00 0.00 0.00 68 1012.1
20260905210005 96 298 0.0 0.0 0.00 0.00 0.00 67 1011.9
20260905205818 95 302 0.0 0.9 0.00 0.00 0.00 68 1012.0
20260905205328 95 295 0.0 0.9 0.00 0.00 0.00 67 1011.9
20260905205000 95 295 0.0 0.9 0.00 0.00 0.00 67 1011.9
20260905204838 96 299 0.0 0.0 0.00 0.00 0.00 67 1011.9
20260905204503 96 299 0.0 0.0 0.00 0.00 0.00 67 1011.9
20260905204005 96 293 0.0 0.9 0.00 0.00 0.00 67 1011.9
20260905203458 96 313 0.0 0.9 0.00 0.00 0.00 66 1011.9
20260905203002 96 282 0.0 0.9 0.00 0.00 0.00 66 1011.9
20260905202918 96 306 0.0 0.9 0.00 0.00 0.00 65 1011.9
20260905202504 96 306 0.0 0.9 0.00 0.00 0.00 65 1011.9
20260905202429 96 334 0.0 0.9 0.00 0.00 0.00 65 1011.9
20260905201938 96 321 0.0 1.7 0.00 0.00 0.00 65 1012.0
20260905201459 96 321 0.0 1.7 0.00 0.00 0.00 65 1012.0
20260905200957 96 300 0.0 1.7 0.00 0.00 0.00 65 1012.1
20260905200505 97 323 0.0 1.7 0.00 0.00 0.00 64 1012.1
20260905200018 96 339 0.0 0.0 0.00 0.00 0.00 64 1013.0
20260905195500 96 297 0.0 0.0 0.00 0.00 0.00 65 1012.9
20260905195002 96 245 0.0 0.0 0.00 0.00 0.00 65 1012.9
20260905194548 96 276 0.0 0.9 0.00 0.00 0.00 64 1012.9
20260905193958 97 303 0.0 0.9 0.00 0.00 0.00 63 1012.9
20260905193608 97 286 0.0 0.9 0.00 0.00 0.00 64 1012.9
20260905193501 97 286 0.0 0.9 0.00 0.00 0.00 64 1012.9
20260905193117 96 306 0.0 1.7 0.00 0.00 0.00 63 1013.0
20260905193004 96 306 0.0 1.7 0.00 0.00 0.00 63 1013.0
20260905192628 95 276 0.0 1.7 0.00 0.00 0.00 64 1012.9
20260905192507 95 276 0.0 1.7 0.00 0.00 0.00 64 1012.9
20260905192138 95 270 0.0 2.6 0.00 0.00 0.00 64 1012.9
20260905191958 95 270 0.0 2.6 0.00 0.00 0.00 64 1012.9
20260905191648 95 309 0.0 2.6 0.00 0.00 0.00 65 1013.0
20260905191502 95 309 0.0 2.6 0.00 0.00 0.00 65 1013.0
20260905191201 94 228 0.0 2.6 0.00 0.00 0.00 66 1012.9
20260905191005 94 228 0.0 2.6 0.00 0.00 0.00 66 1012.9
20260905190456 94 187 0.0 2.6 0.00 0.00 0.00 67 1013.2
20260905190000 94 201 0.0 1.7 0.00 0.00 0.00 65 1013.8
20260905185728 94 103 0.0 0.0 0.00 0.00 0.00 65 1013.9
20260905185502 94 103 0.0 0.0 0.00 0.00 0.00 65 1013.9
20260905185238 94 226 0.0 0.0 0.00 0.00 0.00 65 1013.9
20260905185005 94 226 0.0 0.0 0.00 0.00 0.00 65 1013.9
20260905184747 94 200 0.0 0.0 0.00 0.00 0.00 65 1014.0
20260905184258 95 244 0.0 0.0 0.00 0.00 0.00 65 1013.9
20260905184000 95 244 0.0 0.0 0.00 0.00 0.00 65 1013.9
20260905183809 95 298 0.0 0.0 0.00 0.00 0.00 64 1014.0
20260905183504 95 298 0.0 0.0 0.00 0.00 0.00 64 1014.0
20260905183328 95 248 0.0 0.0 0.00 0.00 0.00 64 1013.9
20260905183007 95 248 0.0 0.0 0.00 0.00 0.00 64 1013.9
20260905182458 95 274 0.0 0.0 0.00 0.00 0.00 63 1014.0
20260905182001 95 270 0.0 0.0 0.00 0.00 0.00 63 1014.0
20260905181848 94 272 0.0 0.0 0.00 0.00 0.00 64 1013.9
20260905181505 94 272 0.0 0.0 0.00 0.00 0.00 64 1013.9
20260905180956 94 242 0.0 0.0 0.00 0.00 0.00 64 1014.1
20260905180501 93 294 0.0 0.9 0.00 0.00 0.00 64 1014.0
20260905180419 93 295 0.0 0.9 0.00 0.00 0.00 64 1014.0
20260905180003 93 295 0.0 0.9 0.00 0.00 0.00 64 1014.0
20260905175505 92 87 0.0 0.0 0.00 0.00 0.00 64 1013.9
20260905174957 93 273 0.0 0.0 0.00 0.00 0.00 63 1013.9
20260905174501 92 256 0.0 0.0 0.00 0.00 0.00 63 1014.0
20260905174003 92 317 0.0 0.0 0.00 0.00 0.00 64 1013.9
20260905173507 91 217 0.0 0.0 0.00 0.00 0.00 64 1013.9
20260905172958 90 219 0.0 0.0 0.00 0.00 0.00 63 1014.0
20260905172501 90 187 0.0 1.7 0.00 0.00 0.00 62 1014.3
20260905172005 90 221 0.0 1.7 0.00 0.00 0.00 62 1014.1
20260905171557 90 342 0.0 0.0 0.00 0.00 0.00 62 1014.2
20260905171456 90 342 0.0 0.0 0.00 0.00 0.00 62 1014.2
20260905171000 89 99 0.0 0.0 0.00 0.00 0.00 61 1014.1
20260905170617 89 268 0.0 0.0 0.00 0.00 0.00 61 1014.8
20260905170502 89 268 0.0 0.0 0.00 0.00 0.00 61 1014.8
20260905170324 88 238 0.0 0.0 0.00 0.00 0.00 61 1014.9
20260905170128 88 238 0.0 0.0 0.00 0.00 0.00 61 1014.9
20260905170006 88 238 0.0 0.0 0.00 0.00 0.00 61 1014.9
20260905165638 89 250 0.0 0.0 0.00 0.00 0.00 60 1015.0
20260905165457 89 250 0.0 0.0 0.00 0.00 0.00 60 1015.0
20260905165148 88 308 0.0 0.0 0.00 0.00 0.00 60 1014.9
20260905165000 88 308 0.0 0.0 0.00 0.00 0.00 60 1014.9
20260905164700 87 276 0.0 0.0 0.00 0.00 0.00 59 1014.9
20260905164006 87 208 0.0 0.0 0.00 0.00 0.00 58 1014.9
20260905163720 87 274 0.0 0.0 0.00 0.00 0.00 58 1014.9
20260905163458 87 274 0.0 0.0 0.00 0.00 0.00 58 1014.9
20260905163001 86 86 0.0 0.0 0.00 0.00 0.00 57 1015.1
20260905162739 86 196 0.0 0.0 0.00 0.00 0.00 56 1015.7
20260905162505 86 196 0.0 0.0 0.00 0.00 0.00 56 1015.7
20260905162249 86 275 0.0 0.0 0.00 0.00 0.00 55 1015.6
20260905161958 86 275 0.0 0.0 0.00 0.00 0.00 55 1015.6
20260905161758 85 207 0.0 0.0 0.00 0.00 0.00 55 1014.9
20260905161501 85 207 0.0 0.0 0.00 0.00 0.00 55 1014.9
20260905161310 85 94 0.0 0.0 0.00 0.00 0.00 55 1014.9
20260905161003 85 94 0.0 0.0 0.00 0.00 0.00 55 1014.9
20260905160820 85 99 0.0 0.0 0.00 0.00 0.00 54 1014.9
20260905160506 85 99 0.0 0.0 0.00 0.00 0.00 54 1014.9
20260905160328 85 84 0.0 0.0 0.00 0.00 0.00 53 1014.9
20260905155958 85 84 0.0 0.0 0.00 0.00 0.00 53 1014.9
20260905155837 85 125 0.0 0.0 0.00 0.00 0.00 51 1015.1
20260905155501 85 125 0.0 0.0 0.00 0.00 0.00 51 1015.1
20260905155350 85 197 0.0 0.0 0.00 0.00 0.00 49 1015.6
20260905154858 84 220 0.0 0.0 0.00 0.00 0.00 49 1015.7
20260905154506 84 220 0.0 0.0 0.00 0.00 0.00 49 1015.7
20260905153958 84 289 0.0 0.0 0.00 0.00 0.00 48 1015.9
20260905153928 84 197 0.0 0.0 0.00 0.00 0.00 48 1016.0
20260905153501 84 197 0.0 0.0 0.00 0.00 0.00 48 1016.0
20260905153005 83 211 0.0 0.0 0.00 0.00 0.00 47 1016.0
20260905151957 83 238 0.0 0.0 0.00 0.00 0.00 47 1016.0
20260905151502 83 98 0.0 0.0 0.00 0.00 0.00 45 1015.9
20260905151006 83 198 0.0 0.0 0.00 0.00 0.00 45 1016.0
20260905150458 83 108 0.0 0.0 0.00 0.00 0.00 43 1015.9
20260905150001 83 97 0.0 0.0 0.00 0.00 0.00 41 1016.0
20260905145503 83 132 0.0 0.0 0.00 0.00 0.00 40 1015.9
20260905145006 83 83 0.0 0.0 0.00 0.00 0.00 38 1015.9
20260905144607 83 99 0.0 0.0 0.00 0.00 0.00 37 1016.0
20260905144117 83 117 0.0 0.0 0.00 0.00 0.00 35 1016.1
20260905144002 83 117 0.0 0.0 0.00 0.00 0.00 35 1016.1
20260905143627 82 335 0.0 0.0 0.00 0.00 0.00 33 1015.9
20260905143504 82 335 0.0 0.0 0.00 0.00 0.00 33 1015.9
20260905143137 81 90 0.0 0.0 0.00 0.00 0.00 33 1016.1
20260905142957 81 90 0.0 0.0 0.00 0.00 0.00 33 1016.1
20260905142657 81 87 0.0 0.0 0.00 0.00 0.00 31 1015.9
20260905142459 81 87 0.0 0.0 0.00 0.00 0.00 31 1015.9
20260905142159 80 112 0.0 0.0 0.00 0.00 0.00 29 1015.9
20260905142015 80 112 0.0 0.0 0.00 0.00 0.00 29 1015.9
20260905141505 80 36 0.0 0.0 0.00 0.00 0.00 28 1015.9
20260905141217 80 55 0.0 0.0 0.00 0.00 0.00 26 1015.9
20260905140957 80 55 0.0 0.0 0.00 0.00 0.00 26 1015.9
20260905140500 80 53 0.0 0.0 0.00 0.00 0.00 24 1015.9
20260905140006 79 30 0.0 0.0 0.00 0.00 0.00 21 1015.9
20260905135748 78 46 0.0 0.0 0.00 0.00 0.00 19 1015.9
20260905134959 77 85 0.0 0.0 0.00 0.00 0.00 15 1016.1
20260905134809 77 32 0.0 0.0 0.00 0.00 0.00 14 1016.8
20260905134507 77 32 0.0 0.0 0.00 0.00 0.00 14 1016.8
20260905134318 77 53 0.0 0.0 0.00 0.00 0.00 12 1016.3
20260905134004 77 53 0.0 0.0 0.00 0.00 0.00 12 1016.3
20260905133501 77 57 0.0 0.0 0.00 0.00 0.00 7 1016.4
20260905133343 78 56 0.0 0.0 0.00 0.00 0.00 5 1016.2
20260905132959 78 56 0.0 0.0 0.00 0.00 0.00 5 1016.2
20260905132905 78 47 0.0 0.0 0.00 0.00 0.00 7 1016.9
20260905132005 78 25 0.0 0.0 0.00 0.00 0.00 7 1016.9
20260905131911 78 340 0.0 0.0 0.00 0.00 0.00 1016.9
20260905131004 78 4 0.0 0.0 0.00 0.00 0.00 45 1016.9
20260905130935 78 266 0.0 0.9 0.00 0.00 0.00 54 1017.0
20260905130501 78 266 0.0 0.9 0.00 0.00 0.00 54 1017.0
20260905130437 78 279 0.0 0.9 0.00 0.00 0.00 52 1016.9
20260905130007 78 279 0.0 0.9 0.00 0.00 0.00 52 1016.9
20260905125458 78 28 0.0 0.0 0.00 0.00 0.00 55 1016.9
20260905125007 78 45 0.0 0.0 0.00 0.00 0.00 24 1016.9
20260905124505 79 306 0.0 0.0 0.00 0.00 0.00 9 1016.8
20260905123958 79 349 0.0 0.0 0.00 0.00 0.00 14 1016.5
20260905123538 79 349 0.0 0.0 0.00 0.00 0.00 14 1015.0
20260905123003 79 90 0.0 0.0 0.00 0.00 0.00 11 1014.9
20260905122503 79 57 0.0 0.0 0.00 0.00 0.00 8 1015.1
20260905122107 79 66 0.0 0.0 0.00 0.00 0.00 9 1015.1
20260905120506 79 290 0.0 0.0 0.00 0.00 0.00 6 1015.7
20260905120147 79 81 0.0 0.0 0.00 0.00 0.00 10 1015.2
20260905115958 79 81 0.0 0.0 0.00 0.00 0.00 10 1015.2
20260905115707 79 41 0.0 0.0 0.00 0.00 0.00 64 1015.6
20260905115502 79 41 0.0 0.0 0.00 0.00 0.00 64 1015.6
20260905115004 79 348 0.0 0.0 0.00 0.00 0.00 62 1015.6
20260905113957 79 283 0.0 0.0 0.00 0.00 0.00 60 1014.9
20260905113813 79 334 0.0 0.0 0.00 0.00 0.00 60 1014.9
20260905113742 79 334 0.0 0.0 0.00 0.00 0.00 60 1014.9
20260905113254 79 14 0.0 0.0 0.00 0.00 0.00 59 1014.9
20260905113005 79 14 0.0 0.0 0.00 0.00 0.00 59 1014.9